This demonstration page uses our WeatherBlox Daily Observations layout. Learn more.

Left ArrowRight Arrow

Hourly Observations for May 29, 2018

Temp ( °F °C ) Dew Point ( °F °C ) Humidity (%) Winds ( mph kmh ) Pressure ( in mb ) Visibility ( mi km ) Precip ( " mm )
12:53 am 00:53 Clear 73 22.8 67 19.4 81 81 Calm 29.95 1014 10 16 0.00 0.00
1:53 am 01:53 Clear 73 22.8 68 20 84 84 Calm 29.93 1014 10 16 0.00 0.00
2:53 am 02:53 Mostly Clear 70 21.1 67 19.4 90 90 Calm 29.93 1014 10 16 0.00 0.00
3:53 am 03:53 Clear 69 20.6 68 20 96 96 Calm 29.93 1013 10 16 0.00 0.00
4:53 am 04:53 Clear 69 20.6 68 20 96 96 Calm 29.92 1013 10 16 0.00 0.00
5:53 am 05:53 Clear 69 20.6 67 19.4 93 93 Calm 29.92 1013 10 16 0.00 0.00
6:53 am 06:53 Sunny 68 20 67 19.4 96 96 Calm 29.94 1014 10 16 0.00 0.00
7:53 am 07:53 Sunny 73 22.8 69 20.6 87 87 E 6 9 29.94 1014 10 16 0.00 0.00
8:53 am 08:53 Mostly Cloudy 75 23.9 68 20 79 79 E 5 7 29.95 1014 10 16 0.00 0.00
9:53 am 09:53 Sunny 76 24.4 68 20 77 77 E 7 11 29.96 1015 10 16 0.00 0.00
10:53 am 10:53 Mostly Cloudy 79 26.1 69 20.6 72 72 E 8 13 29.95 1014 10 16 0.00 0.00
11:53 am 11:53 Cloudy 79 26.1 69 20.6 72 72 ESE 7 11 29.94 1014 10 16 0.00 0.03
12:53 pm 12:53 Cloudy 80 26.7 69 20.6 69 69 E 12 19 29.93 1013 10 16 0.00 0.00
1:53 pm 13:53 Sunny 85 29.4 69 20.6 59 59 E 12 19 29.90 1012 10 16 0.00 0.00
2:53 pm 14:53 Sunny with Light Rain 86 30 70 21.1 59 59 E 10 17 29.88 1012 10 16 0.00 0.03
3:53 pm 15:53 Sunny 86 30 70 21.1 59 59 E 12 19 29.86 1011 10 16 0.00 0.03
4:53 pm 16:53 Sunny 87 30.6 69 20.6 55 55 ESE 9 15 29.84 1011 10 16 0.00 0.03
5:53 pm 17:53 Sunny 86 30 70 21.1 59 59 E 9 15 29.83 1010 10 16 0.00 0.00
6:53 pm 18:53 Mostly Cloudy 85 29.4 70 21.1 61 61 E 14 22 29.82 1010 10 16 0.00 0.00
7:53 pm 19:53 Mostly Sunny 84 28.9 69 20.6 61 61 E 9 15 29.82 1010 10 16 0.00 0.00
8:53 pm 20:53 Partly Cloudy with Light Rain 81 27.2 70 21.1 69 69 VRB 7 11 29.84 1010 10 16 0.00 0.03
9:53 pm 21:53 Cloudy 77 25 73 22.8 88 88 E 6 9 29.83 1010 10 16 0.00 0.03
10:53 pm 22:53 Cloudy 78 25.6 72 22.2 82 82 E 6 9 29.82 1010 10 16 0.00 0.00
11:53 pm 23:53 Mostly Clear 80 26.7 71 21.7 74 74 E 8 13 29.80 1009 10 16 0.00 0.00

Powered by AerisWeather